| time (UTC) | temp F | wind direction | speed knots | gust knots | rain 1hr in | rain 24hr in | rain mn in | humidity % | barometer mb |
| 20260901083034 | 68 | 145 | 0.0 | 0.0 | 0.00 | 0.02 | 0.02 | 93 | 1014.9 |
| 20260901080032 | 68 | 146 | 0.0 | 0.0 | 0.00 | 0.02 | 0.02 | 93 | 1015.1 |
| 20260901074531 | 68 | 146 | 0.0 | 0.0 | 0.00 | 0.02 | 0.02 | 93 | 1015.1 |
| 20260901073030 | 68 | 146 | 0.0 | 2.6 | 0.00 | 0.02 | 0.02 | 93 | 1015.2 |
| 20260901070027 | 68 | 146 | 0.0 | 0.0 | 0.00 | 0.02 | 0.02 | 93 | 1015.6 |
| 20260901064525 | 68 | 146 | 0.0 | 0.0 | 0.00 | 0.02 | 0.02 | 92 | 1015.8 |
| 20260901063027 | 68 | 145 | 0.0 | 0.0 | 0.00 | 0.02 | 0.02 | 92 | 1015.8 |
| 20260901060025 | 68 | 146 | 0.0 | 0.0 | 0.00 | 0.02 | 0.02 | 92 | 1016.0 |
| 20260901054524 | 68 | 146 | 0.0 | 0.0 | 0.00 | 0.02 | 0.02 | 92 | 1016.0 |
| 20260901053024 | 68 | 145 | 0.0 | 0.0 | 0.00 | 0.02 | 0.02 | 92 | 1016.1 |
| 20260901050024 | 68 | 146 | 0.0 | 0.0 | 0.01 | 0.02 | 0.02 | 92 | 1016.3 |
| 20260901044536 | 68 | 146 | 0.0 | 0.0 | 0.01 | 0.02 | 0.02 | 92 | 1016.3 |
| 20260901043020 | 68 | 146 | 0.0 | 0.0 | 0.01 | 0.02 | 0.02 | 92 | 1016.1 |
| 20260901040018 | 68 | 146 | 0.0 | 0.0 | 0.00 | 0.01 | 0.01 | 92 | 1016.2 |
| 20260901034530 | 69 | 146 | 0.0 | 0.0 | 0.00 | 0.01 | 0.01 | 92 | 1016.5 |
| 20260901033038 | 69 | 146 | 0.0 | 0.0 | 0.00 | 0.01 | 0.01 | 92 | 1016.6 |
| 20260901030026 | 69 | 145 | 0.0 | 0.0 | 0.00 | 0.01 | 0.01 | 91 | 1016.6 |
| 20260901024522 | 69 | 146 | 0.0 | 0.0 | 0.00 | 0.01 | 0.01 | 91 | 1016.9 |
| 20260901023018 | 70 | 146 | 0.0 | 0.0 | 0.00 | 0.01 | 0.01 | 91 | 1016.9 |
| 20260901020018 | 70 | 146 | 0.0 | 0.0 | 0.00 | 0.01 | 0.01 | 91 | 1017.0 |
| 20260901014517 | 70 | 146 | 0.0 | 0.0 | 0.00 | 0.01 | 0.01 | 91 | 1017.2 |
| 20260901013017 | 70 | 146 | 0.0 | 0.0 | 0.00 | 0.01 | 0.01 | 90 | 1017.2 |
| 20260901010019 | 70 | 145 | 0.0 | 0.0 | 0.00 | 0.01 | 0.01 | 90 | 1017.0 |
| 20260901004516 | 70 | 146 | 0.0 | 0.0 | 0.00 | 0.01 | 0.01 | 90 | 1016.9 |
| 20260901003032 | 70 | 146 | 0.0 | 0.0 | 0.00 | 0.01 | 0.01 | 89 | 1016.9 |
| 20260901000029 | 71 | 146 | 0.0 | 0.0 | 0.00 | 0.01 | 0.01 | 89 | 1016.4 |
| 20260831234515 | 71 | 146 | 0.0 | 1.7 | 0.00 | 0.01 | 0.01 | 88 | 1016.3 |
| 20260831233013 | 71 | 145 | 0.0 | 0.9 | 0.00 | 0.01 | 0.01 | 87 | 1016.3 |
| 20260831230016 | 71 | 145 | 0.0 | 1.7 | 0.00 | 0.01 | 0.01 | 87 | 1016.5 |
| 20260831224512 | 71 | 145 | 0.0 | 3.5 | 0.00 | 0.01 | 0.01 | 87 | 1016.5 |
| 20260831223011 | 71 | 145 | 0.0 | 2.6 | 0.00 | 0.01 | 0.01 | 87 | 1016.6 |
| 20260831220020 | 72 | 145 | 0.9 | 4.3 | 0.00 | 0.01 | 0.01 | 86 | 1016.8 |
| 20260831214508 | 72 | 154 | 0.0 | 3.5 | 0.00 | 0.01 | 0.01 | 85 | 1017.0 |
| 20260831213009 | 73 | 157 | 0.0 | 1.7 | 0.00 | 0.01 | 0.01 | 85 | 1017.0 |
| 20260831210003 | 72 | 134 | 0.0 | 2.6 | 0.00 | 0.01 | 0.01 | 86 | 1017.2 |
| 20260831204502 | 72 | 133 | 0.0 | 5.2 | 0.00 | 0.01 | 0.01 | 86 | 1017.3 |
| 20260831203106 | 71 | 146 | 0.0 | 0.0 | 0.00 | 0.01 | 0.01 | 87 | 1017.4 |
| 20260831200108 | 71 | 109 | 1.7 | 7.8 | 0.00 | 0.01 | 0.01 | 86 | 1017.5 |
| 20260831194611 | 70 | 118 | 0.9 | 8.7 | 0.00 | 0.01 | 0.01 | 87 | 1017.5 |
| 20260831193054 | 70 | 125 | 0.0 | 9.6 | 0.00 | 0.01 | 0.01 | 87 | 1017.7 |
| 20260831190104 | 69 | 197 | 1.7 | 6.1 | 0.00 | 0.01 | 0.01 | 88 | 1017.9 |
| 20260831184550 | 69 | 153 | 0.9 | 6.1 | 0.00 | 0.01 | 0.01 | 88 | 1017.9 |
| 20260831183045 | 68 | 118 | 0.0 | 7.8 | 0.00 | 0.01 | 0.01 | 89 | 1018.1 |
| 20260831180054 | 68 | 172 | 0.0 | 4.3 | 0.00 | 0.01 | 0.01 | 91 | 1018.4 |
| 20260831174541 | 67 | 123 | 0.0 | 4.3 | 0.00 | 0.01 | 0.01 | 92 | 1018.5 |
| 20260831173038 | 66 | 127 | 0.0 | 5.2 | 0.00 | 0.01 | 0.01 | 92 | 1018.7 |
| 20260831170034 | 66 | 133 | 0.0 | 1.7 | 0.00 | 0.01 | 0.01 | 92 | 1019.2 |
| 20260831164537 | 66 | 133 | 0.0 | 4.3 | 0.00 | 0.01 | 0.01 | 92 | 1019.2 |
| 20260831163033 | 65 | 138 | 0.0 | 0.9 | 0.00 | 0.01 | 0.01 | 92 | 1019.4 |
| 20260831160032 | 65 | 138 | 0.0 | 2.6 | 0.00 | 0.01 | 0.01 | 92 | 1019.5 |
| 20260831154529 | 65 | 138 | 0.0 | 2.6 | 0.00 | 0.01 | 0.01 | 92 | 1019.5 |
| 20260831153029 | 65 | 122 | 0.0 | 3.5 | 0.01 | 0.01 | 0.01 | 91 | 1019.5 |
| 20260831150030 | 66 | 118 | 0.0 | 1.7 | 0.01 | 0.01 | 0.01 | 91 | 1019.3 |
| 20260831144527 | 66 | 118 | 0.0 | 4.3 | 0.01 | 0.01 | 0.01 | 91 | 1019.3 |
| 20260831143027 | 66 | 111 | 0.0 | 2.6 | 0.00 | 0.00 | 0.00 | 91 | 1019.4 |
| 20260831140027 | 66 | 57 | 0.0 | 0.0 | 0.00 | 0.00 | 0.00 | 93 | 1019.1 |
| 20260831134522 | 65 | 57 | 1.7 | 4.3 | 0.00 | 0.00 | 0.00 | 93 | 1019.0 |
| 20260831133024 | 64 | 301 | 0.0 | 0.0 | 0.00 | 0.00 | 0.00 | 93 | 1019.1 |
| 20260831130016 | 64 | 301 | 0.0 | 0.0 | 0.00 | 0.00 | 0.00 | 93 | 1019.5 |
| 20260831124518 | 64 | 301 | 0.0 | 0.0 | 0.00 | 0.00 | 0.00 | 93 | 1019.5 |
| 20260831123015 | 63 | 301 | 0.0 | 0.0 | 0.00 | 0.00 | 0.00 | 93 | 1019.5 |
| 20260831120015 | 63 | 301 | 0.0 | 0.0 | 0.00 | 0.00 | 0.00 | 93 | 1019.6 |
| 20260831114514 | 63 | 300 | 0.0 | 0.0 | 0.00 | 0.00 | 0.00 | 93 | 1019.4 |
| 20260831113013 | 63 | 300 | 0.0 | 0.0 | 0.00 | 0.00 | 0.00 | 93 | 1019.4 |
| 20260831110011 | 63 | 300 | 0.0 | 0.0 | 0.00 | 0.00 | 0.00 | 93 | 1019.3 |
| 20260831104517 | 63 | 300 | 0.0 | 0.0 | 0.00 | 0.00 | 0.00 | 93 | 1019.2 |
| 20260831103009 | 63 | 300 | 0.0 | 0.0 | 0.00 | 0.00 | 0.00 | 93 | 1019.3 |
| 20260831100007 | 63 | 300 | 0.0 | 0.0 | 0.00 | 0.00 | 0.00 | 93 | 1018.9 |
| 20260831094506 | 63 | 300 | 0.0 | 0.0 | 0.00 | 0.00 | 0.00 | 93 | 1018.9 |
| 20260831093006 | 63 | 300 | 0.0 | 0.0 | 0.00 | 0.00 | 0.00 | 93 | 1018.9 |
| 20260831090003 | 63 | 300 | 0.0 | 0.9 | 0.00 | 0.00 | 0.00 | 93 | 1019.1 |
| 20260831084502 | 63 | 300 | 0.0 | 0.0 | 0.00 | 0.00 | 0.00 | 93 | 1019.0 |